Regional Weather Roundup
Issued by NWS

Home | Current Version | Previous Version | Text Only | Print | Product List | Glossary On
Versions: 1 2 3 4 5 6 7 8 9 10 11 12 13 14 15 16 17 18 19 20 21 22 23 24 25 26 27 28
000
ASUS42 KTBW 030515
RWRFL
FLORIDA REGIONAL WEATHER ROUNDUP
NATIONAL WEATHER SERVICE TAMPA BAY RUSKIN FL
100 AM EDT TUE MAY 03 2016

NOTE: "FAIR" INDICATES FEW OR NO CLOUDS BELOW 12,000 FEET WITH NO
SIGNIFICANT WEATHER AND/OR OBSTRUCTIONS TO VISIBILITY.

FLZ001>010-012>015-112-114-115-030600-
PANHANDLE FLORIDA

CITY           SKY/WX    TMP DP  RH WIND       PRES   REMARKS
PENSACOLA      CLEAR     71  67  87 SW5       29.93F
MILTON NAS     LGT RAIN  68  68 100 W6        29.94
CRESTVIEW      CLOUDY    69  67  93 CALM      29.95F
PANAMA CITY    FAIR      72  71  97 CALM      29.92F
APALACHICOLA   MOCLDY    76  74  93 S7        29.94F

STATION/POSITION SKY/WX   TEMP    WIND        PRES    WAVE   SWELL
                          AIR SEA DIR/SP/G            HT/PER HT/PER
                          (F)     (DEG/KT/KT) (MB)    (FT/S) (FT/S)
30.1N   87.6W              75 76  170/  2/  4 1013.1F   3/ 8   2/ 8
29.2N   88.2W              76 77  180/  2/  4 1014.3F
28.8N   86.0W              78 78  200/  8/ 10 1014.3S   3/ 7   2/ 7
PANAMA CITY BEAC           76 77  180/  7/  8 1014.4F
TOWER C                    75     190/  6/  6 1014.4F
28.5N   84.5W              76 76  160/  4/  6 1014.0F   2/ 6   2/ 6

$$
FLZ011-016>038-118-127-128-134-139-239-030600-
NORTH FLORIDA

CITY           SKY/WX    TMP DP  RH WIND       PRES   REMARKS
MARIANNA       CLOUDY    73  72  96 S5        29.93S
TALLAHASSEE    CLOUDY    75  69  81 SW3       29.95F
PERRY          CLOUDY    70  69  96 CALM      29.96F FOG
LIVE OAK         N/A     68  68 100 CALM      29.99F
CROSS CITY       N/A     69  66  90 CALM      29.96F
LAKE CITY      FAIR      72  68  88 SW3       29.97F
GAINESVILLE    MOCLDY    73  67  81 CALM      29.98F
WILLISTON      FAIR      72  70  94 SE3       29.99F
PALATKA        CLOUDY    75  75 100 S7        29.98F
MAYPORT NAS    PTCLDY    74  71  91 S9        29.96F
JACKSONVILLE   MOCLDY    74  70  87 SE3       29.96F
JAX NAS        PTCLDY    78  71  79 S8        29.97F
JAX CECIL      MOCLDY    70  70 100 CALM      29.97F
FERNANDINA BEA FAIR      77  72  83 S5        29.95F
ST AUGUSTINE   PTCLDY    74  70  87 S6        29.98F
PALM COAST     CLOUDY    74  73  96 S7        29.98F

STATION/POSITION SKY/WX   TEMP    WIND        PRES    WAVE   SWELL
                          AIR SEA DIR/SP/G            HT/PER HT/PER
                          (F)     (DEG/KT/KT) (MB)    (FT/S) (FT/S)
SHELL POINT                78     230/  7/  9 1013.5
KEATON BEACH               77     250/  9/ 10 1014.1F
CEDAR KEY                  77     250/  6/  7 1016.1S
FERNANDINA                 76 78  160/  4/  7 1015.0F
30.7N   81.3W                 74                N/A     3/ 5
MAYPORT                    77 76  170/  5/  7 1015.4F
ST AUGUSTINE               75 74  190/ 10/ 12 1015.7F

$$
FLZ040-043>046-052-053-057-058-063-144-030600-
INTERIOR CENTRAL FLORIDA

CITY           SKY/WX    TMP DP  RH WIND       PRES   REMARKS
OCALA          CLOUDY    73  68  83 CALM      30.00F
THE VILLAGES     N/A     77  72  83 CALM      29.90F
LEESBURG       MOCLDY    76  70  82 SE6       30.01F
SANFORD        MOCLDY    73  69  87 S7        30.01F
ORLANDO EXEC   CLOUDY    75  70  84 S9        30.01F
ORLANDO INTL   CLOUDY    72  69  90 SE7       30.02F
WINTER HAVEN   CLOUDY    75  71  87 SE6       30.02F
LAKELAND       CLOUDY    77  72  83 CALM      30.01F
BARTOW         FAIR      72  72 100 CALM      30.02S
OKEECHOBEE     CLOUDY    77  72  83 S7        30.01S

$$
FLZ041-047-054-059-064-141-147-030600-
EAST CENTRAL FLORIDA

CITY           SKY/WX    TMP DP  RH WIND       PRES   REMARKS
DAYTONA BEACH  CLOUDY    74  69  85 SW10      30.00F
DELAND           N/A     73  68  83 S7        30.01F
MELBOURNE      LGT RAIN  76  73  91 S6        30.00F
VERO BEACH     PTCLDY    77  72  84 SE7       30.00F
FT PIERCE      PTCLDY    76  72  87 S8        30.00F
STUART         PTCLDY    79  73  83 SE6       30.02F

STATION/POSITION SKY/WX   TEMP    WIND        PRES    WAVE   SWELL
                          AIR SEA DIR/SP/G            HT/PER HT/PER
                          (F)     (DEG/KT/KT) (MB)    (FT/S) (FT/S)
28.5N   80.2W              78 77  150/ 14/ 17 1015.8F
28.9N   78.5W              77 79  160/ 17/ 19 1016.8F
TRIDENT PIER               78 80  170/ 14/ 16 1016.2S
28.4N   80.5W                 78                N/A     3/ 4
27.5N   80.2W                 77                N/A     3/ 9   2/11

$$
FLZ050-056-061-142-242-148-248-149-249-151-251-155-255-
160-260-030600-
WEST CENTRAL FLORIDA

CITY           SKY/WX    TMP DP  RH WIND       PRES   REMARKS
CRYSTAL RIVER  FAIR      70  68  94 CALM      29.99F
INVERNESS      CLOUDY    72  72 100 CALM      30.01F
BROOKSVILLE    MOCLDY    72  70  93 SE7       30.01F
ZEPHYRHILLS    CLOUDY    72  67  84 CALM      30.02S
CLEARWATER AIR FAIR      75  72  88 CALM      29.99F
ST PETE CLEARW MOCLDY    77  71  82 S3        29.99F
TAMPA INTL     MOCLDY    78  72  81 SW6       30.00F
TAMPA EXEC     CLOUDY    77  70  78 CALM      30.01S
PLANT CITY     MOCLDY    77  72  83 CALM      30.03S
PETER O KNIGHT MOCLDY    81  73  78 CALM      30.01S
ST PETERSBURG  PTCLDY    78  72  81 W6        29.99S
SARASOTA       CLOUDY    79  73  82 SW6       29.98F
VENICE         NOT AVBL

STATION/POSITION SKY/WX   TEMP    WIND        PRES    WAVE   SWELL
                          AIR SEA DIR/SP/G            HT/PER HT/PER
                          (F)     (DEG/KT/KT) (MB)    (FT/S) (FT/S)
27.3N   84.2W                 80                N/A     2/ 5
CLEARWATER BEACH           78 81  220/  6/  9 1016.1R
MIDDLE TAMPA BAY           78     250/  6/  7 1016.4F
VENICE                     78 83  230/  6/  7 1015.5F

$$
FLZ066-069-070-075>078-162-262-165-265-030600-
SOUTHWEST FLORIDA AND KEYS

CITY           SKY/WX    TMP DP  RH WIND       PRES   REMARKS
PUNTA GORDA    MOCLDY    77  73  87 CALM      30.02F
FT MYERS       PTCLDY    78  74  87 CALM      29.99F
SOUTHWEST INTL LGT RAIN  77  74  90 CALM      30.00F
NAPLES         CLEAR     77  73  87 SE6       30.00F
MARCO ISLAND   CLEAR     75  70  83 SE5       30.00F
MARATHON       MOCLDY    81  74  79 SE9G17    29.99F
KEY WEST NAS   CLOUDY    81  75  82 SE10      30.00S
KEY WEST INTL  CLOUDY    78  77  96 SE13      30.00S

STATION/POSITION SKY/WX   TEMP    WIND        PRES    WAVE   SWELL
                          AIR SEA DIR/SP/G            HT/PER HT/PER
                          (F)     (DEG/KT/KT) (MB)    (FT/S) (FT/S)
NAPLES                        83              1016.3R
26.0N   85.6W              80 80  120/ 10/ 10 1015.1F   4/ 8   3/ 8
DRY TORTUGAS               79     130/ 10/ 11 1015.3F
SAND KEY                   80     140/ 14/ 16 1016.0F
LONG KEY                   80 82  130/ 15/ 17 1016.2F

$$
FLZ067-068-071>074-168-172>174-030600-
SOUTHEAST FLORIDA

CITY           SKY/WX    TMP DP  RH WIND       PRES   REMARKS
W PALM BEACH   MOCLDY    79  72  79 SE13      30.01F
FT LAUDER-EXEC MOCLDY    79  72  79 SE12      30.00F
FT LAUDERDALE  MOCLDY    80  73  79 SE12      30.00S
POMPANO BEACH  PTCLDY    80  73  79 SE14      30.00F
PEMBROKE PINES PTCLDY    79  72  79 SE6       30.01F
OPA LOCKA      PTCLDY    79  73  82 SE5       30.01S
MIAMI          PTCLDY    78  73  84 S3        30.00F
WEST KENDALL   CLEAR     78  72  81 CALM      30.00F
HOMESTEAD      NOT AVBL

STATION/POSITION SKY/WX   TEMP    WIND        PRES    WAVE   SWELL
                          AIR SEA DIR/SP/G            HT/PER HT/PER
                          (F)     (DEG/KT/KT) (MB)    (FT/S) (FT/S)
PORT EVERGLADES            80     130/ 10/ 14 1016.0F
VIRGINIA KEY               80 82  130/  9/ 11 1016.4S
LAKE WORTH                 79 80  140/ 16/ 18 1016.1F
SETTLEMENT POINT           77     130/  9/ 12 1017.1F

$$





USA.gov is the U.S. government's official web portal to all federal, state and local government web resources and services.